Content
SEND FEEDBACK

Daily
Averages
Monthly
Summary
Mexico

LAS GAVIOTAS, NAYARIT


Home > North America > Mexico > Nayarit
Elevation: 184 feet     Latitude: 20 53N     Longitude: 105 08W

WEATHER
 
SELECT A DAY
Number of Records: 166,000;   Date Range: 1/1/95 - 12/17/14
 
SHARE

PRINT THIS DATA

[ ← Previous Day ]
WEATHER ALMANAC - JANUARY 3, 2013
[ Next Day → ]
[ °C ]   °F
Weather ElementAverageHighLow
Temperature72.3 °F82.4 °F (12:46 pm)60.8 °F (6:45 am)
Dewpoint63.8 °F69.8 °F (6:43 pm)59 °F (6:45 am)
Humidity75.9 %94 % (3:50 am)51 % (12:46 pm)
Barometer29.92 in29.98 in (10:49 pm)29.85 in (2:42 pm)
Wind Speed4.4 mph11.5 mph (2:42 pm)
Weather ElementAverage
Visibility13.9 mi
Wind DirectionE (87.3 °)

Weather ElementTotal
Precipitation---
Cooling Degree Days6.6 (Base 65)
Growing Degree Days21.6 (Base 50)
Averaged from 22 records on January 3, 2013
WEATHER CONDITIONS BREAKOUT
WIND DIRECTION BREAKOUT
WEATHER BY HOUR - JANUARY 3, 2013
[ °C ]   °F
Local TimeTemperatureDewpointHumidityBarometerVisibilityWind DirectionWind SpeedGust SpeedPrecipitationEventsConditions
1:46 AM64.4 °F60.8 °F88 %29.91 in12.0 miCalmClear
2:45 AM64.4 °F60.8 °F88 %29.91 in12.0 miCalmClear
3:50 AM62.6 °F60.8 °F94 %29.91 in12.0 miCalmClear
4:52 AM62.6 °F60.8 °F94 %29.91 in12.0 miCalmClear
6:45 AM60.8 °F59.0 °F94 %29.91 in12.0 miNNE (20°)4.6 mphClear
7:47 AM62.6 °F59.0 °F88 %29.93 in15.0 miNNE (20°)6.9 mphPartly Cloudy
8:49 AM66.2 °F60.8 °F83 %29.95 in15.0 miNE (40°)6.9 mphClear
9:47 AM69.8 °F62.6 °F78 %29.96 in15.0 miNNE (20°)5.8 mphClear
10:45 AM73.4 °F62.6 °F69 %29.96 in15.0 miNE (50°)5.8 mphClear
11:43 AM78.8 °F62.6 °F57 %29.92 in15.0 miCalmClear
12:46 PM82.4 °F62.6 °F51 %29.91 in15.0 miCalmClear
1:44 PM80.6 °F64.4 °F58 %29.89 in15.0 miSSW (200°)8.1 mphClear
2:42 PM80.6 °F64.4 °F58 %29.85 in15.0 miSW (230°)11.5 mphClear
3:46 PM80.6 °F66.2 °F61 %29.87 in15.0 miSW (230°)9.2 mphClear
4:43 PM80.6 °F68.0 °F65 %29.87 in15.0 miSouth (190°)9.2 mphClear
5:50 PM78.8 °F68.0 °F69 %29.89 in15.0 miSSE (160°)10.4 mphClear
6:43 PM77.0 °F69.8 °F78 %29.90 in15.0 miSSE (160°)6.9 mphScattered Clouds
7:44 PM77.0 °F66.2 °F69 %29.92 in15.0 miSouth (180°)3.5 mphScattered Clouds
8:41 PM73.4 °F66.2 °F78 %29.92 in15.0 miENE (70°)3.5 mphScattered Clouds
9:49 PM71.6 °F66.2 °F83 %29.97 in12.0 miCalmMostly Cloudy
10:49 PM71.6 °F66.2 °F83 %29.98 in12.0 miCalmMostly Cloudy
11:49 PM71.6 °F66.2 °F83 %29.97 in12.0 miNorth (350°)4.6 mphClear
Hourly data recorded from MMPR, located miles away from Las Gaviotas, Nayarit







STORIES FROM OUR PARTNERS